Notices

What's New in latest Release from April 7th, 2021:

- Updated Glossary, including Speed of Maximum Gust, and Total Hourly Precipitation

- Updated national and regional climate services offices contacts and prices information

- Addition of station inventory lists for 1981-2010, 1971-2000, and 1961-1990 Normals.

If you haven't already, please take our survey and provide feedback about our website: https://eccc.sondage-survey.ca/f/LanguageSelection.aspx?s=442ca660-fcf1-47c0-95a9-59707d6fd709

Hourly Data Report for October 31, 2015

IQALUIT CLIMATE
NUNAVUT

63°44'50.000" N
68°32'40.000" W
33.50 m
2402592
71321
XFB

Download Data

Hourly Data (October 2015)
Hourly Data Report for October 31, 2015
TIME
LST
Temp Definition
°C
Dew Point Definition
°C
Rel Hum Definition
%
Precip. Amount Definition
mm

Wind Dir Definition
10's deg

Wind Spd Definition
km/h
Visibility Definition
km
Stn Press Definition
kPa
Hmdx Definition


Wind Chill Definition


Weather Definition


00:00 -6.1 -10.2 73 0.0 1 17   99.85   -12 LegendNANA
01:00 -6.9 -9.7 80 0.0 33 14   99.91   -13 LegendNANA
02:00 -7.8 -9.6 87 0.0 33 22   99.97   -15 LegendNANA
03:00 -8.1 -9.9 87 0.0 33 23   100.04   -16 LegendNANA
04:00 -9.7 -12.3 81 0.0 33 28   100.10   -19 LegendNANA
05:00 -11.1 -14.2 78 0.0 33 32   100.16   -21 LegendNANA
06:00 -10.7 -14.0 77 0.0 33 26   100.25   -20 LegendNANA
07:00 -11.4 -14.2 80 0.0 33 31   100.30   -21 LegendNANA
08:00 -11.5 -14.7 77 0.0 34 28   100.36   -21 LegendNANA
09:00 -11.7 -14.2 82 0.0 33 28   100.42   -21 LegendNANA
10:00 -11.6 -14.5 79 0.0 33 29   100.47   -21 LegendNANA
11:00 -11.9 -15.2 76 0.0 34 22   100.52   -21 LegendNANA
12:00 -11.6 -14.4 80 0.0 34 28   100.55   -21 LegendNANA
13:00 -12.6 -15.9 76 0.0 34 30   100.63   -23 LegendNANA
14:00 -13.8 -17.1 76 0.0 33 27   100.71   -24 LegendNANA
15:00 -14.8 -18.3 75 0.0 34 28   100.80   -25 LegendNANA
16:00 -15.8 -19.1 76 0.0 32 20   100.86   -25 LegendNANA
17:00 -14.6 -17.7 77 0.0 34 24   100.92   -24 LegendNANA
18:00 -15.7 -18.9 76 0.0 33 12   101.00   -23 LegendNANA
19:00 -15.6 -18.5 78 0.0 35 9   101.02   -22 LegendNANA
20:00 -14.8 -18.1 76 0.0 34 22   101.01   -24 LegendNANA
21:00 -14.4 -18.0 74 0.0 36 27   101.04   -25 LegendNANA
22:00 -14.2 -17.7 75 0.0 35 30   101.08   -25 LegendNANA
23:00 -16.0 -19.8 73 0.0 32 12   101.10   -23 LegendNANA

Notes on Data Quality.

Legend

  • E = Estimated
  • M = Missing
  • NA = Not Available*
  • [empty] = Indicates an unobserved value
Date modified: